{"data":{"norad_id":38087,"epoch":"2026-09-19T08:18:49.215744Z","epoch_age_seconds":107491,"freshness":"FRESH","line1":"1 38087U 12007A   26262.34640296 -.00000172  00000+0  00000+0 0  9997","line2":"2 38087   0.0173  60.1819 0002361 129.4441 271.3476  1.00272140 53174","mean_motion":1.0027214,"eccentricity":0.0002361,"inclination_deg":0.0173,"raan_deg":60.1819,"arg_perigee_deg":129.4441,"mean_anomaly_deg":271.3476,"bstar":0,"rev_number":5317,"period_min":1436.0918197218,"perigee_km":35776.540372378,"apogee_km":35796.450511817,"semimajor_km":42164.632442097,"source":"CELESTRAK","updated_at":"2026-09-20T09:00:35.640505Z"}}